CW5920 Weather Reports


time (UTC)temp
F
wind
direction
speed
knots
gust
knots
rain 1hr
in
rain 24hr
in
rain mn
in
humidity
%
barometer
mb
20260505051516 73 158 9.6 17.4 0.00 0.00 0.00 78 1005.9
20260505050516 74 135 8.7 17.4 0.00 0.00 0.00 78 1006.0
20260505041516 74 135 10.4 20.0 0.00 0.00 0.00 76 1005.9
20260505040515 75 158 9.6 16.5 0.00 0.00 0.00 76 1006.0
20260505035515 75 135 9.6 19.1 0.00 0.00 0.00 76 1006.0
20260505034515 75 135 11.3 18.2 0.00 0.00 0.00 75 1006.1
20260505033516 75 158 9.6 15.6 0.00 0.00 0.00 75 1005.9
20260505032536 75 135 11.3 16.5 0.00 0.00 0.00 75 1005.8
20260505031516 75 135 11.3 16.5 0.00 0.00 0.00 75 1005.9
20260505030516 75 135 8.7 15.6 0.00 0.00 0.00 75 1005.8
20260505025515 75 135 9.6 14.8 0.00 0.00 0.00 75 1006.0
20260505024516 75 135 7.0 17.4 0.00 0.00 0.00 75 1006.2
20260505023516 75 135 10.4 18.2 0.00 0.00 0.00 75 1005.9
20260505022515 75 135 11.3 18.2 0.00 0.00 0.00 74 1005.7
20260505021515 75 135 9.6 16.5 0.00 0.00 0.00 75 1005.7
20260505020516 75 135 9.6 16.5 0.00 0.00 0.00 74 1005.5
20260505015536 75 135 9.6 14.8 0.00 0.00 0.00 74 1005.6
20260505014516 75 135 10.4 18.2 0.00 0.00 0.00 74 1005.5
20260505013516 76 135 7.8 13.0 0.00 0.00 0.00 74 1005.5
20260505012515 76 135 7.8 12.2 0.00 0.00 0.00 73 1005.6
20260505011516 76 135 7.8 11.3 0.00 0.00 0.00 72 1005.5
20260505010516 76 135 8.7 16.5 0.00 0.00 0.00 72 1005.4
20260505005516 76 135 8.7 15.6 0.00 0.00 0.00 72 1005.6
20260505004535 77 135 8.7 13.0 0.00 0.00 0.00 71 1005.6
20260505003515 77 135 10.4 16.5 0.00 0.00 0.00 70 1005.7
20260505002515 77 135 9.6 14.8 0.00 0.00 0.00 70 1005.8
20260505001516 78 135 10.4 15.6 0.00 0.00 0.00 69 1006.0
20260505000515 78 135 11.3 18.2 0.00 0.00 0.00 69 1005.9
20260504235516 78 135 11.3 19.1 0.00 0.00 0.00 68 1006.0
20260504234515 78 135 8.7 14.8 0.00 0.00 0.00 68 1006.2
20260504233515 79 135 8.7 12.2 0.00 0.00 0.00 67 1006.2
20260504232515 79 135 10.4 18.2 0.00 0.00 0.00 67 1006.2
20260504231515 79 135 12.2 19.1 0.00 0.00 0.00 66 1006.2
20260504230516 79 135 11.3 20.0 0.00 0.00 0.00 66 1006.4
20260504225515 79 135 11.3 18.2 0.00 0.00 0.00 66 1006.5
20260504224515 79 135 9.6 15.6 0.00 0.00 0.00 64 1006.5
20260504223516 79 135 9.6 17.4 0.00 0.00 0.00 63 1006.5
20260504222515 80 135 9.6 15.6 0.00 0.00 0.00 63 1006.6
20260504221535 80 158 9.6 18.2 0.00 0.00 0.00 63 1006.9
20260504220535 80 135 10.4 17.4 0.00 0.00 0.00 62 1006.8
20260504215536 80 158 8.7 16.5 0.00 0.00 0.00 62 1006.9
20260504214556 81 135 10.4 19.1 0.00 0.00 0.00 61 1007.0
20260504213515 81 135 9.6 19.1 0.00 0.00 0.00 61 1007.1
20260504212516 81 135 11.3 17.4 0.00 0.00 0.00 60 1007.3
20260504211535 81 135 12.2 23.5 0.00 0.00 0.00 60 1007.4
20260504210515 82 158 7.8 15.6 0.00 0.00 0.00 61 1007.6
20260504205535 82 135 10.4 18.2 0.00 0.00 0.00 59 1007.8
20260504204555 82 135 10.4 17.4 0.00 0.00 0.00 61 1007.9
20260504203515 82 135 10.4 19.1 0.00 0.00 0.00 60 1008.3
20260504202515 82 135 10.4 19.1 0.00 0.00 0.00 61 1008.4
20260504201515 82 158 7.0 19.1 0.00 0.00 0.00 59 1008.6
20260504200515 81 135 8.7 17.4 0.00 0.00 0.00 60 1008.7
20260504195516 81 135 10.4 16.5 0.00 0.00 0.00 62 1009.0
20260504194515 81 135 9.6 16.5 0.00 0.00 0.00 61 1009.3
20260504193516 81 135 8.7 15.6 0.00 0.00 0.00 61 1009.6
20260504192515 80 135 11.3 16.5 0.00 0.00 0.00 62 1009.6
20260504191515 80 135 11.3 15.6 0.00 0.00 0.00 63 1009.6
20260504190516 80 158 7.8 16.5 0.00 0.00 0.00 63 1009.8
20260504185535 80 135 9.6 15.6 0.00 0.00 0.00 64 1009.9
20260504184535 79 135 11.3 17.4 0.00 0.00 0.00 63 1010.1
20260504183516 79 158 8.7 18.2 0.00 0.00 0.00 63 1010.3
20260504182515 79 158 6.1 14.8 0.00 0.00 0.00 64 1010.4
20260504181655 78 135 9.6 16.5 0.00 0.00 0.00 64 1010.5
20260504180515 78 158 7.8 14.8 0.00 0.00 0.00 64 1010.8
20260504175515 78 158 7.8 15.6 0.00 0.00 0.00 63 1010.9